Regional Weather Roundup
Issued by NWS Sterling, VA

Current Version | Previous Version | Graphics & Text | Print | Product List | Glossary On
Versions: 1 2 3 4 5 6 7 8 9 10 11 12 13 14 15 16 17 18 19 20 21 22 23 24 25 26 27
000
ASUS41 KLWX 030518
RWRLWX

REGIONAL WEATHER ROUNDUP
NATIONAL WEATHER SERVICE BALTIMORE MD/WASHINGTON DC
100 AM EDT SUN JUL 03 2022

Note: "FAIR" indicates few or no clouds below 12,000 feet
with no significant weather and/or obstructions to visibility.
 TC=TEMPERATURE CELSIUS

 * =Non NWS site. Station does not report precipitation (e.g. rain,
    snow, etc.), thunder, or fog.

DCZ001-MDZ009-015-VAZ040>042-051-053>054-030600-
WASHINGTON METRO

CITY           SKY/WX    TMP DP  RH WIND       PRES   REMARKS
WASHINGTON NAT MOCLDY    75  69  81 NE9       29.98S
DULLES         CLOUDY    75  69  81 E3        29.96F
QUANTICO       PTCLDY    82  74  76 SW3       29.96S
LEESBURG*      MOCLDY    72  72 100 CALM      29.99R
MANASSAS*      PTCLDY    76  70  82 NE5       29.97S
GAITHERSBURG*  MOCLDY    72  71  97 CALM      29.99F

$$

MDZ006>007-011-014-030600-
BALTIMORE METRO

CITY           SKY/WX    TMP DP  RH WIND       PRES   REMARKS
BWI AIRPORT    TSTM      73  69  87 SW6       29.97R
MARTIN STATE   MOCLDY    72  72 100 CALM      29.98R FOG
ANNAPOLIS      HVY RAIN  74  71  91 NW13G24   29.98R VSB 1/2
FORT MEADE*    CLOUDY    70  70 100 S9        30.00R

$$

MDZ012-015-019>023-030600-
MARYLAND EASTERN SHORE

CITY           SKY/WX    TMP DP  RH WIND       PRES   REMARKS
OCEAN CITY     MOCLDY    77  73  87 SW9       29.99F
SALISBURY      MOCLDY    78  71  79 S7        29.98S
CAMBRIDGE*     CLOUDY    79  75  89 VRB5      29.98R
EASTON*        MOCLDY   N/A N/A N/A SE3       30.00S

$$

MDZ017>025-030600-
SOUTHERN MARYLAND

CITY           SKY/WX    TMP DP  RH WIND       PRES   REMARKS
PATUXENT RIVER PTCLDY   N/A N/A N/A S10       29.96S
ST INIGOES     PTCLDY    82  71  69 S9        29.96S
LEONARDTOWN*   PTCLDY    79  72  78 S3        29.98F

$$

MDZ003>005-030600-
NORTH CENTRAL MARYLAND

CITY           SKY/WX    TMP DP  RH WIND       PRES   REMARKS
FREDERICK*     HVY RAIN  70  70 100 CALM      29.98S
HAGERSTOWN APT CLOUDY    72  69  90 CALM      29.99R
WESTMINSTER*   CLOUDY    73  72  94 CALM      29.99R

$$

MDZ501>502-030600-
WESTERN MARYLAND

CITY           SKY/WX    TMP DP  RH WIND       PRES   REMARKS
OAKLAND*       FAIR      63  63 100 NW3       30.12S
CUMBERLAND*    NOT AVBL

$$

VAZ025>031-030600-
SHENANDOAH VALLEY

CITY           SKY/WX    TMP DP  RH WIND       PRES   REMARKS
WINCHESTER*    CLOUDY    70  66  88 CALM      29.98R
FRONT ROYAL*   PTCLDY    72  70  94 S3        29.99S
LURAY*         PTCLDY    73  72  94 CALM      30.00F
NEW MARKET*    MOCLDY    72  71  96 CALM      30.00S
STAUNTON*      PTCLDY    70  70  99 CALM      30.05S
WAYNESBORO*    PTCLDY    70  70  99 SW3       30.04S

$$

WVZ021-048>050-054>055-030600-
EASTERN WEST VIRGINIA PANHANDLE

CITY           SKY/WX    TMP DP  RH WIND       PRES   REMARKS
MARTINSBURG    CLOUDY    71  70  96 CALM      29.98R FOG
PETERSBURG*    MOCLDY    71  71 100 CALM      30.03S

$$

VAZ036>039-050-030600-
CENTRAL FOOTHILLS

CITY           SKY/WX    TMP DP  RH WIND       PRES   REMARKS
CHARLOTTESVILL PTCLDY    77  72  84 CALM      29.98S
CULPEPER*      PTCLDY    75  74  95 CALM      29.98R
ORANGE*        PTCLDY    72  72 100 S3        29.99S
GORDONSVILLE*  PTCLDY    74  71  89 SW3       29.97F
WARRENTON*     MOCLDY    77  73  87 NE5       29.97S

$$

VAZ055>057-030600-
NORTH AND CENTRAL PIEDMONT

CITY           SKY/WX    TMP DP  RH WIND       PRES   REMARKS
FREDERICKSBRG* PTCLDY    78  71  77 SW6       29.94S
STAFFORD*      NOT AVBL

$$

NCZ024-NYZ072-PAZ021-071-VAZ022-071-030600-
OTHER REGIONAL OBSERVATIONS

CITY           SKY/WX    TMP DP  RH WIND       PRES   REMARKS
NEW YORK CITY  MOCLDY    78  66  66 CALM      29.97R
PHILADELPHIA   MOCLDY    75  72  90 W8        29.95F
PITTSBURGH     CLOUDY    71  51  49 N3        30.05R
ROANOKE        PTCLDY    74  68  81 CALM      30.04F
RICHMOND       MOCLDY    77  71  82 S8        29.98F
RALEIGH        MOCLDY    78  72  81 CALM      29.99F

$$

ANZ530>537-030600-
MARINE OBSERVATIONS

STATION/POSITION TIME  TEMP    WIND        PRES
                       AIR SEA DIR/SP/G
                 (UTC) (F)     (DEG/KT/KT) (MB)
THOMAS PT LIGHT  0500   76 79  280/ 26/ 30 1015.9R
TOLCHESTER       0424   71 80  100/  5/  7 1014.6
GOOSES REEF      0442   77 78  180/  4/  6 1015.0F
COVE POINT       0424   80     140/ 12/ 15 1014.8
BALT HARBOR      0424   76 82  180/  1/  2 1014.1
BALT KEY BRIDGE  0430          170/  2/  3 1014.4R
ANNAPOLIS USNA   0424   77 83  110/  3/  7 1013.8
ANNAPOLIS CBIBS  0442   75 79  200/  2/  4 1014.1F
WASH DC CHANNEL  0424   76 83   30/  4/  7 1015.1
DAHLGREN         0430   80 81  200/  6/  8 1013.4F
LEWISETTA        0430   79 82  220/ 11/ 14 1014.9F
SOLOMONS ISLAND  0424   80 76  220/ 11/ 14 1013.1
PINEY POINT      0430          240/ 12/ 15   N/A
POTOMAC BUOY     0442   77 80  210/ 10/ 14   N/A
CAMBRIDGE PIER   0424   79 80   60/  8/  9 1015.1
BISHOPS HEAD     0424   80 81  210/ 12/ 15 1015.2
CHESAPEAKE CITY  0424   72 81  170/  1/  2 1014.8

$$




USA.gov is the U.S. government's official web portal to all federal, state and local government web resources and services.